Location: St. Louis
(38.6270°N, 90.1994°W)
Time: 05:50:09
(UTC-06:00)

Vanguard 2 Rocket - Pass Details

Date: 01 December 2021
Orbit: 554 x 3325 km, 32.9° (Epoch: 21 January)

Event Time Altitude Azimuth Distance (km) Brightness Sun altitude
Exits shadow 02:47:11 14° 192° (SSW) 5,900 10.8 -48.7°
Drops below altitude 10° 02:50:34 10° 183° (S) 6,244 11.0 -48.0°
Sets 02:57:30 0° 168° (SSE) 7,090 11.5 -46.7°
